STARLINK-35140

Last updated on Mon Oct 06 2025 00:02:05 GMT+0000 (Coordinated Universal Time)

1 65501U 25198K 25278.50001156 .00009011 00000+0 16999-3 0 9991 2 65501 53.1588 280.4788 0001175 76.6444 87.0303 15.49290167 5584

Satellite not in orbit

STARLINK-35140